Date,TemperatureHighF,TemperatureAvgF,TemperatureLowF,DewpointHighF,DewpointAvgF,DewpointLowF,HumidityHigh,HumidityAvg,HumidityLow,PressureMaxIn,PressureMinIn,WindSpeedMaxMPH,WindSpeedAvgMPH,GustSpeedMaxMPH,PrecipitationSumIn
2013-3-1,26,19,6,14,9,-1,79,66,55,29.86,29.80,12,4,12,0.00
2013-3-2,27,12,-4,12,2,-10,79,66,51,29.84,29.70,9,1,10,0.00
2013-3-3,30,10,-13,13,-1,-20,77,62,45,29.70,29.60,9,0,9,0.00
2013-3-4,32,17,-4,16,5,-12,76,61,48,29.69,29.61,11,1,11,0.00
2013-3-5,29,22,19,16,13,8,82,68,55,29.73,29.58,10,2,12,0.00
2013-3-6,31,22,8,20,16,1,84,75,61,29.86,29.73,7,0,7,0.00
2013-3-7,32,17,3,20,9,-4,80,71,59,29.95,29.85,6,0,6,0.00
2013-3-8,40,25,8,25,15,1,80,68,53,29.96,29.80,12,1,12,0.00
2013-3-9,32,29,24,28,24,17,88,80,72,29.80,29.37,2,0,2,0.22
2013-3-10,32,30,26,29,27,23,90,88,86,29.50,29.34,14,2,15,0.06
2013-3-11,27,24,18,24,21,0,90,86,81,29.39,29.18,11,1,11,0.00
2013-3-12,24,19,15,18,14,0,86,81,75,29.56,29.26,6,0,7,0.00
2013-3-13,29,18,7,15,10,0,83,71,56,29.79,29.54,11,1,13,0.12
2013-3-14,34,18,-4,22,9,-10,80,69,53,29.79,29.52,11,1,11,0.00
2013-3-15,30,26,14,24,18,8,82,74,61,29.54,29.46,10,3,10,0.00
2013-3-16,23,15,8,12,8,2,80,72,61,29.67,29.50,8,1,9,0.02
2013-3-17,26,12,-10,8,1,-16,77,62,44,29.80,29.58,7,0,9,0.00
2013-3-18,29,21,12,22,14,3,83,77,63,29.60,29.07,10,0,10,0.00
2013-3-19,24,17,11,15,9,4,82,72,56,29.48,29.08,10,2,17,0.00
2013-3-20,18,12,1,7,3,-5,74,68,60,29.56,29.46,8,1,11,0.00
2013-3-21,27,17,6,15,8,-1,79,70,59,29.59,29.50,10,0,10,0.02
2013-3-22,31,18,-4,21,10,-11,80,72,65,29.64,29.54,7,0,8,0.00
2013-3-23,33,26,20,23,18,14,80,72,63,29.72,29.63,6,0,6,0.00
2013-3-24,30,25,18,21,18,11,77,73,69,29.67,29.50,13,3,14,0.00
2013-3-25,34,25,16,24,18,10,85,75,63,29.71,29.48,13,2,13,0.00
2013-3-26,36,28,21,26,20,15,82,71,56,29.80,29.70,8,1,9,0.00
2013-3-27,40,30,19,23,18,10,78,62,46,29.85,29.79,9,0,9,0.00
2013-3-28,46,28,11,22,14,4,75,57,38,29.88,29.81,6,0,6,0.00
2013-3-29,49,31,13,24,16,6,76,55,36,29.87,29.72,5,0,6,0.00
2013-3-30,35,32,27,32,26,14,89,77,57,29.72,29.35,11,0,11,0.38
2013-3-31,34,30,19,31,23,13,90,78,55,29.48,29.22,15,1,15,0.06